User: anonymous   Login
Location: ??????
(30.5519°N, 47.7720°E)
Time: 17:59:09
(UTC+00:00)
Language:

FengYun 1-2 T - Orbit

View from above orbital plane
View from above orbital plane
View from above satellite
View from above satellite

Ground track
Ground track

The orbit data is extracted from the following two-line orbital elements,

1 20855U 90081T   21109.92252144 -.00000089  00000-0 -27322-4 0  9999
2 20855  98.7045 120.8357 0024999  61.4966 359.5262 14.08691174573981
Epoch (UTC): 19 April 2021 22:08:25
Eccentricity: 0.0024999
inclination: 98.7045°
perigee height: 846 km
apogee height: 882 km
right ascension of ascending node: 120.8357°
argument of perigee: 61.4966°
revolutions per day: 14.08691174
mean anomaly at epoch: 359.5262°
orbit number at epoch: 57398

The dashed part of the orbit path shows where the satellite is in the earth's shadow,  

DLR